DW8587 Weather Reports


Display with metric or nautical units.
time (UTC)temp
F
wind
direction
speed
MPH
gust
MPH
rain 1hr
in
rain 24hr
in
rain mn
in
humidity
%
barometer
mb
20260507151509 71 197 3.0 5.0 0.00 0.23 0.02 48 1011.1
20260507150007 69 255 3.0 9.0 0.00 0.23 0.02 51 1011.1
20260507144510 69 159 3.0 6.0 0.00 0.28 0.02 52 1011.1
20260507143005 68 157 2.0 9.0 0.00 0.28 0.02 54 1011.2
20260507141504 69 192 2.0 8.0 0.00 0.28 0.02 52 1011.3
20260507140001 69 239 4.0 10.0 0.00 0.28 0.02 55 1011.5
20260507134600 68 269 1.0 6.0 0.00 0.50 0.02 54 1011.5
20260507133106 68 226 1.0 12.0 0.00 0.50 0.02 53 1011.8
20260507131603 68 186 6.0 14.0 0.00 0.50 0.02 55 1011.8
20260507130108 67 207 2.0 6.0 0.00 0.50 0.02 58 1012.0
20260507124556 67 185 4.0 10.0 0.00 0.67 0.02 57 1012.1
20260507123053 66 140 8.0 14.0 0.00 0.67 0.02 59 1012.1
20260507121604 67 174 4.0 9.0 0.00 0.67 0.02 59 1012.3
20260507120052 66 219 2.0 9.0 0.00 0.67 0.02 59 1012.3
20260507114604 66 159 5.0 9.0 0.00 0.67 0.02 59 1012.4
20260507113050 65 212 4.0 11.0 0.00 0.67 0.02 59 1012.5
20260507111546 65 121 2.0 9.0 0.00 0.67 0.02 61 1012.6
20260507110046 65 239 3.0 8.0 0.00 0.67 0.02 65 1012.7
20260507104544 65 127 4.0 8.0 0.00 0.67 0.02 63 1012.9
20260507103044 64 161 4.0 8.0 0.00 0.67 0.02 64 1013.0
20260507101540 63 249 3.0 7.0 0.00 0.67 0.02 65 1013.2
20260507100041 63 207 3.0 7.0 0.00 0.67 0.02 66 1013.2
20260507094539 63 211 3.0 6.0 0.00 0.68 0.02 66 1013.2
20260507093033 62 323 2.0 7.0 0.00 0.68 0.02 66 1013.2
20260507091531 62 144 2.0 6.0 0.00 0.68 0.02 66 1013.2
20260507090030 60 165 2.0 9.0 0.00 0.68 0.02 71 1013.1
20260507084526 60 161 1.0 6.0 0.00 0.68 0.02 73 1013.2
20260507083023 59 84 3.0 9.0 0.00 0.68 0.02 74 1013.0
20260507081535 59 159 3.0 7.0 0.00 0.68 0.02 77 1013.0
20260507080018 59 185 1.0 3.0 0.00 0.68 0.02 79 1012.9
20260507074524 57 40 2.0 4.0 0.00 0.68 0.02 81 1012.8
20260507073012 56 342 2.0 9.0 0.00 0.68 0.02 81 1012.8
20260507071508 55 5 4.0 9.0 0.00 0.68 0.02 83 1012.8
20260507070010 55 11 2.0 6.0 0.00 0.68 0.02 84 1012.8
20260507064507 54 339 4.0 9.0 0.00 0.69 0.02 84 1012.6
20260507063101 54 340 4.0 11.0 0.00 0.69 0.02 85 1012.5
20260507061607 54 13 3.0 6.0 0.00 0.69 0.02 87 1012.4
20260507060055 53 5 2.0 5.0 0.00 0.69 0.02 88 1012.3
20260507054633 52 336 3.0 8.0 0.00 0.69 0.02 89 1012.3
20260507053052 52 338 2.0 4.0 0.00 0.69 0.02 90 1012.1
20260507051546 51 33 2.0 4.0 0.00 0.69 0.02 90 1011.9
20260507050046 51 47 2.0 4.0 0.00 0.69 0.02 90 1011.7
20260507044549 51 350 1.0 5.0 0.00 0.69 0.02 90 1011.6
20260507043042 51 46 2.0 5.0 0.00 0.69 0.02 90 1011.3
20260507041541 51 13 1.0 6.0 0.00 0.69 0.02 90 1011.2
20260507040038 51 32 1.0 4.0 0.01 0.69 0.02 90 1011.2
20260507034535 51 26 3.0 5.0 0.01 0.71 0.02 90 1011.2
20260507033034 51 42 4.0 7.0 0.01 0.71 0.02 90 1011.1
20260507031533 51 31 1.0 6.0 0.01 0.71 0.02 90 1011.1
20260507030041 51 38 3.0 7.0 0.00 0.70 0.01 90 1011.1
20260507024536 52 35 1.0 6.0 0.00 0.76 0.01 90 1011.0
20260507023030 52 9 4.0 8.0 0.00 0.76 0.01 90 1011.0
20260507021529 52 41 4.0 10.0 0.00 0.76 0.01 90 1011.2
20260507020028 52 29 1.0 5.0 0.00 0.76 0.01 91 1011.2
20260507014538 52 42 3.0 8.0 0.00 0.76 0.01 91 1011.0
20260507013025 52 22 1.0 3.0 0.00 0.76 0.01 91 1011.0
20260507011528 52 54 4.0 9.0 0.00 0.76 0.01 90 1010.8
20260507010023 52 32 0.0 3.0 0.01 0.76 0.01 90 1010.9
20260507004524 52 327 2.0 3.0 0.01 0.76 0.01 90 1010.9
20260507003021 52 355 2.0 8.0 0.01 0.76 0.01 90 1010.7
20260507001525 52 19 7.0 12.0 0.01 0.76 0.01 90 1010.7
20260507000026 52 35 5.0 10.0 0.00 0.76 0.00 90 1010.7
20260506234516 53 331 4.0 10.0 0.00 0.76 0.00 89 1010.7
20260506233015 53 30 2.0 6.0 0.00 0.76 0.00 88 1010.7
20260506231514 53 355 3.0 6.0 0.00 0.76 0.00 88 1010.7
20260506230012 53 57 3.0 11.0 0.00 0.76 0.00 88 1010.5
20260506224512 53 29 6.0 14.0 0.00 0.76 0.00 88 1010.5
20260506223009 53 42 9.0 14.0 0.00 0.76 0.00 89 1010.4
20260506221506 53 346 4.0 6.0 0.00 0.76 0.00 90 1010.4
20260506220014 53 348 4.0 9.0 0.00 0.76 0.00 90 1010.4
20260506214503 53 20 3.0 7.0 0.00 0.80 0.76 90 1010.3
20260506213002 53 25 4.0 12.0 0.00 0.80 0.76 91 1010.2
20260506211507 53 37 4.0 6.0 0.00 0.80 0.76 91 1010.3
20260506210005 53 346 4.0 8.0 0.00 0.80 0.76 92 1010.4
20260506204501 53 342 1.0 4.0 0.00 0.84 0.76 91 1010.2
20260506203100 52 42 2.0 5.0 0.00 0.84 0.76 91 1010.0
20260506201559 52 36 3.0 8.0 0.00 0.84 0.76 91 1010.0
20260506200059 52 35 2.0 5.0 0.00 0.84 0.76 92 1009.8
20260506194633 52 24 1.0 4.0 0.00 0.85 0.76 92 1009.6
20260506193105 52 38 2.0 4.0 0.00 0.85 0.76 91 1009.4
20260506191555 53 228 1.0 2.0 0.00 0.85 0.76 91 1009.4
20260506190101 53 15 1.0 5.0 0.04 0.85 0.76 90 1008.9
20260506184555 53 360 4.0 7.0 0.11 0.91 0.76 89 1008.4
20260506183053 54 125 5.0 12.0 0.15 0.91 0.76 89 1007.8
20260506181553 54 115 1.0 15.0 0.20 0.91 0.76 89 1007.5
20260506174553 55 202 4.0 6.0 0.09 0.84 0.64 87 1008.5
20260506173056 56 5 1.0 5.0 0.06 0.81 0.61 85 1007.9
20260506171556 56 38 8.0 16.0 0.02 0.76 0.56 82 1007.7
20260506164548 57 34 4.0 11.0 0.00 0.85 0.54 83 1007.2
20260506163107 58 360 1.0 2.0 0.00 0.85 0.54 84 1006.9
20260506161547 57 350 4.0 13.0 0.00 0.85 0.54 82 1006.7
20260506160047 57 36 7.0 14.0 0.00 0.85 0.54 82 1006.2
20260506154606 57 26 8.0 15.0 0.00 0.86 0.54 83 1006.2
20260506153050 57 33 10.0 15.0 0.00 0.86 0.54 83 1006.5